Regional Weather Roundup
Issued by NWS Binghamton, NY

Home | Current Version | Previous Version | Text Only | Print | Product List | Glossary On
Versions: 1 2 3 4 5 6 7 8 9 10 11 12 13 14 15 16 17 18 19 20 21 22 23 24 25 26 27 28 29 30 31 32 33 34 35 36 37 38 39 40 41 42 43 44 45 46 47 48 49 50
000
ASUS41 KBGM 240010
RWRBGM

REGIONAL WEATHER ROUNDUP
NATIONAL WEATHER SERVICE BINGHAMTON NY
800 PM EDT THU MAR 23 2017

Note: "fair" indicates few or no clouds below 12,000 feet with no
significant weather and/or obstructions to visibility.

* = Station(s) that does not report precipitation, such as rain,
snow, etc, also no thunder or fog.

NYZ009-015>018-022>025-036-037-044>046-055>057-062-240100
...Central New York...

CITY           SKY/WX    TMP DP  RH WIND       PRES   REMARKS
Binghamton     CLEAR     29   4  34 S3        30.42R
Cortland       FAIR      30   9  40 CALM      30.45R
Dansville      CLEAR     34  16  47 CALM      30.43R
Elmira         CLEAR     33  11  39 CALM      30.43S
Seneca Falls   CLEAR     32  10  40 E3        30.49R
Ithaca         CLEAR     30   7  37 E6        30.45R WCI  24
Hamilton       CLEAR     23  10  58 CALM      30.48R
Monticello     CLEAR     30   1  29 W3        30.45S
Norwich        CLEAR     27   3  36 CALM      30.48R
Oneonta        CLEAR     27  -4  26 CALM      30.43R
Penn Yan       CLEAR     31  12  45 N3        30.45R
Rome           CLEAR     28  10  46 CALM      30.52R
Sidney         CLEAR     27   7  43 CALM      30.47R
Syracuse       PTCLDY    29   7  39 CALM      30.49R
$$

PAZ038>040-043-044-047-048-072-240100
...Northeast Pennsylvania...

CITY           SKY/WX    TMP DP  RH WIND       PRES   REMARKS
Hazleton       CLEAR     30   3  31 CALM      30.47S
Scranton       CLEAR     33  11  39 CALM      30.46S
$$
&&
KEY
WCI = Wind Chill Index
VSB = Visibility
HX  = Heat Index
$$



USA.gov is the U.S. government's official web portal to all federal, state and local government web resources and services.